Temp
64 70 71 68 69 69 62 61 56 61 63 62 62 61 61 61 61 62 62 69 66 62 61 59 58 58 57 55 54 54 54 54 53 53 53 54 53 52 53 52 54 54 53 52
60 70 71 67 71 70 70 69 65 67 63 68 64 66 63 64 64 62 68 68 67 65 64 62 60 58 57 55 55 54 54 54 55 55 55 54 53 53 52 51 52 52 52 51
51 65 66 59 67 69 69 71 69 61 61 67 64 67 65 64 66 68 70 69 66 65 63 61 58 57 53 54 54 54 54 56 56 56 56 54 54 53 51 50 49 49 50 50
50 54 47 61 73 75 70 74 71 67 68 67 65 65 67 68 69 68 68 67 66 63 59 57 56 54 54 54 54 54 54 55 57 56 55 54 52 51 49 49 49 49 50 50
47 49 58 65 71 68 61 62 72 67 69 69 69 67 64 70 70 66 65 64 62 60 58 56 54 54 53 52 53 54 55 55 56 56 54 53 52 49 49 48 48 48 50 49
49 47 45 58 66 70 69 56 68 72 68 67 66 55 56 66 67 65 64 62 60 59 57 54 52 53 52 52 52 53 55 56 56 55 53 52 50 49 49 48 49 50 50 50
50 49 55 62 66 70 53 50 62 67 69 67 62 63 63 66 64 64 62 60 60 57 54 52 53 53 51 52 51 54 56 56 56 54 52 51 50 49 49 49 48 49 47 46
44 42 42 65 65 57 57 63 64 63 63 62 64 65 64 63 62 61 60 60 59 54 51 52 53 52 51 51 54 55 55 55 54 53 54 55 50 49 50 48 48 46 47 45
48 47 56 62 62 62 63 66 66 67 67 66 65 63 63 61 60 60 59 58 57 54 52 52 52 52 51 52 55 55 53 52 52 53 53 52 49 49 48 47 46 47 46 44
56 59 59 65 65 66 68 69 70 70 69 68 64 64 62 61 60 59 58 57 56 53 51 50 53 56 53 56 56 54 51 51 51 50 50 50 50 49 47 46 45 45 44 42
58 61 63 66 68 68 71 72 72 72 71 68 65 63 62 61 60 59 58 57 56 53 52 52 54 54 56 57 56 52 51 51 49 49 49 48 49 45 47 43 45 44 42 42
50 57 59 62 65 69 70 72 72 71 69 69 68 65 64 62 61 60 57 56 54 54 54 55 56 56 56 56 55 51 50 50 48 48 48 49 47 48 44 45 45 45 45 43
51 55 59 60 62 66 69 68 71 71 70 68 68 67 65 61 60 58 58 57 56 56 57 56 57 56 57 56 55 53 48 50 48 49 48 47 49 48 46 45 44 43 43 43
56 56 55 57 57 63 64 67 70 72 71 70 68 67 65 61 61 60 58 58 58 59 58 57 57 56 57 57 55 53 51 50 48 47 48 48 48 49 48 45 43 43 44 41
57 57 56 58 63 65 69 70 67 67 68 67 67 64 63 60 59 59 60 61 60 59 59 59 57 55 58 57 54 53 52 51 49 49 48 49 48 49 47 45 44 42 42 44
58 57 58 57 63 65 67 66 65 66 66 66 64 63 62 61 59 60 60 60 56 54 57 56 55 56 58 55 53 52 51 49 50 48 49 49 49 48 46 44 43 42 42 43
56 53 56 64 65 64 64 66 66 68 67 65 63 63 62 61 58 57 58 59 57 56 56 55 54 58 57 53 51 49 49 50 43 49 50 50 49 47 45 44 42 41 40 41
58 63 68 66 65 65 65 65 66 66 65 66 65 63 61 59 56 56 57 56 56 54 53 53 54 55 55 54 50 48 48 50 52 51 51 51 47 48 46 45 43 41 40 43
66 63 62 64 66 65 65 64 63 65 65 66 64 61 60 59 57 56 56 56 54 51 51 53 53 53 53 52 49 49 50 53 53 51 51 47 48 47 46 44 44 41 40 43
65 67 65 65 63 64 62 63 63 63 63 63 64 60 58 58 58 56 54 51 52 52 52 52 53 52 53 51 46 50 51 52 52 51 51 49 49 52 49 43 45 42 40 43
64 65 65 65 64 64 63 62 62 62 62 64 62 60 58 56 58 56 52 50 51 52 52 51 51 50 48 44 48 51 52 52 51 49 49 49 53 52 48 46 44 42 41 45
61 63 64 64 62 62 61 61 60 59 59 60 61 61 59 56 56 55 55 52 49 41 50 50 47 38 43 39 49 51 53 51 50 49 48 49 52 51 46 44 43 42 42 45
58 60 62 62 61 60 61 60 62 60 59 60 60 58 58 57 57 53 50 51 50 44 48 46 38 36 36 47 49 51 51 50 49 49 49 49 49 47 45 43 42 42 45 45
56 57 58 60 60 59 57 59 61 62 60 59 58 59 58 56 54 52 48 41 39 45 46 44 41 38 36 47 49 50 48 48 48 48 49 44 48 47 45 44 41 42 46 43
56 56 57 58 56 55 56 57 58 58 57 56 57 57 58 59 54 51 50 46 40 45 46 39 41 39 47 50 51 49 47 47 46 47 47 46 46 45 44 43 46 45 45 44
54 53 54 56 55 55 55 56 54 55 55 54 54 55 57 55 53 53 50 48 49 44 47 46 49 49 50 51 51 49 47 47 47 46 46 46 45 44 43 47 46 45 44 43
53 49 54 54 56 53 52 53 55 54 54 56 53 56 56 55 51 51 47 50 49 49 48 48 49 47 49 50 49 48 47 46 41 45 45 44 44 43 43 45 45 44 43 42
MSLP
1003.19 1002.69 1002.38 1002.50 1002.72 1002.63 1003.59 1004.44 1005.30 1005.51 1005.75 1006.20 1006.95 1008.10 1009.11 1009.94 1011.10 1011.72 1012.00 1014.37 1014.98 1015.61 1016.26 1016.77 1017.70 1018.01 1018.65 1019.34 1019.81 1020.02 1020.35 1020.44 1020.45 1020.33 1020.30 1020.25 1020.22 1020.18 1020.11 1019.95 1019.86 1019.70 1019.53 1019.47
1003.11 1002.58 1002.21 1002.09 1002.18 1002.30 1002.38 1003.06 1003.82 1004.40 1005.13 1005.18 1006.54 1007.65 1009.09 1009.70 1010.48 1011.27 1011.79 1012.79 1014.34 1015.39 1016.01 1016.93 1017.47 1017.95 1018.69 1019.37 1019.81 1020.06 1020.28 1020.26 1020.08 1020.04 1019.99 1019.96 1019.97 1019.90 1019.74 1019.72 1019.61 1019.43 1019.19 1018.99
1003.46 1002.91 1002.52 1002.17 1001.46 1001.60 1001.80 1001.91 1002.99 1003.90 1004.85 1005.66 1006.72 1007.38 1008.44 1009.02 1009.56 1010.45 1011.61 1012.88 1014.28 1015.04 1015.85 1016.62 1017.20 1017.96 1018.87 1019.38 1019.71 1020.04 1020.13 1020.01 1019.82 1019.78 1019.86 1019.86 1019.74 1019.72 1019.75 1019.66 1019.46 1019.19 1018.79 1018.42
1004.06 1003.86 1002.71 1000.99 1000.78 1000.91 1001.18 1001.28 1002.18 1004.01 1005.08 1006.11 1006.86 1007.38 1007.65 1007.83 1008.84 1010.46 1011.50 1013.10 1014.13 1014.94 1015.88 1016.80 1017.52 1018.24 1018.85 1019.34 1019.77 1019.93 1019.94 1019.88 1019.64 1019.70 1019.83 1019.78 1019.83 1019.85 1019.68 1019.43 1019.16 1018.76 1018.38 1017.90
1004.57 1003.99 1002.65 1001.41 1001.08 1001.29 1001.55 1001.50 1001.69 1003.29 1004.41 1005.56 1007.02 1007.40 1008.79 1008.62 1009.16 1010.44 1011.84 1013.08 1014.16 1015.10 1016.11 1017.12 1017.83 1018.43 1019.01 1019.57 1019.79 1019.86 1019.92 1019.74 1019.73 1019.70 1019.82 1019.75 1019.86 1019.83 1019.54 1019.32 1019.04 1018.60 1018.09 1017.58
1004.85 1004.46 1002.94 1002.07 1001.86 1001.51 1000.93 1002.75 1003.29 1002.54 1004.56 1005.68 1006.53 1008.44 1010.15 1010.07 1010.03 1011.33 1012.40 1013.52 1014.78 1015.72 1016.59 1017.45 1018.22 1018.72 1019.34 1019.67 1019.77 1019.91 1019.67 1019.71 1019.61 1019.57 1019.63 1019.73 1019.69 1019.53 1019.21 1018.92 1018.68 1018.47 1018.06 1017.67
1005.54 1004.89 1003.38 1002.52 1002.24 1001.59 1002.37 1004.87 1003.72 1004.35 1004.84 1005.68 1006.62 1007.78 1009.53 1010.42 1011.41 1012.11 1013.24 1014.36 1015.39 1016.26 1017.23 1018.04 1018.56 1019.07 1019.50 1019.59 1019.78 1019.64 1019.57 1019.60 1019.53 1019.49 1019.48 1019.38 1019.28 1019.00 1018.81 1018.65 1018.62 1018.41 1018.29 1018.09
1006.19 1006.17 1004.95 1003.51 1002.80 1003.13 1003.36 1003.92 1003.85 1004.65 1005.99 1008.56 1007.69 1008.47 1009.76 1011.01 1012.16 1013.25 1014.12 1015.00 1015.97 1016.93 1017.93 1018.38 1018.81 1019.21 1019.58 1019.67 1019.57 1019.54 1019.53 1019.51 1019.46 1019.30 1019.25 1019.08 1019.06 1018.82 1018.55 1018.49 1018.50 1018.33 1018.21 1018.43
1005.26 1004.75 1004.27 1004.38 1002.93 1003.00 1003.39 1003.62 1004.26 1005.05 1005.90 1008.19 1008.14 1009.13 1010.59 1011.56 1012.68 1013.78 1014.63 1015.53 1016.47 1017.39 1018.22 1018.63 1018.99 1019.20 1019.47 1019.59 1019.53 1019.54 1019.64 1019.69 1019.53 1019.29 1019.12 1018.90 1018.93 1018.83 1018.54 1018.33 1018.25 1018.41 1018.48 1018.52
1004.01 1004.08 1003.44 1004.41 1003.63 1002.58 1002.73 1003.09 1003.95 1005.01 1006.43 1007.24 1008.54 1009.66 1010.85 1011.88 1013.14 1014.26 1015.14 1015.95 1016.70 1017.64 1018.45 1018.95 1019.03 1019.19 1019.41 1019.33 1019.38 1019.58 1019.70 1019.67 1019.55 1019.55 1019.23 1018.77 1018.46 1018.29 1018.34 1018.25 1018.40 1018.49 1018.60 1018.65
1003.40 1003.63 1004.04 1003.85 1003.44 1002.78 1002.34 1002.76 1003.92 1005.08 1006.15 1007.19 1008.15 1009.60 1010.69 1012.23 1013.42 1014.45 1015.25 1016.04 1016.76 1017.66 1018.37 1018.77 1018.87 1019.09 1019.06 1019.18 1019.36 1019.75 1019.77 1019.74 1019.63 1019.47 1019.26 1018.95 1018.45 1018.41 1018.26 1018.35 1018.21 1018.35 1018.63 1018.68
1005.52 1004.25 1004.13 1003.61 1003.65 1002.74 1002.68 1003.10 1004.10 1004.82 1006.21 1007.12 1007.81 1009.39 1011.29 1012.69 1013.39 1014.39 1015.30 1016.12 1016.87 1017.48 1017.95 1018.27 1018.63 1018.82 1018.96 1019.15 1019.36 1019.66 1019.76 1019.68 1019.61 1019.49 1019.24 1018.91 1018.53 1018.16 1018.03 1018.07 1018.25 1018.30 1018.46 1018.40
1007.44 1005.88 1005.09 1005.54 1004.57 1003.46 1003.64 1003.85 1004.29 1005.04 1005.99 1007.21 1008.74 1010.14 1011.36 1012.74 1013.56 1014.50 1015.44 1016.20 1016.86 1017.28 1017.61 1018.01 1018.45 1018.74 1018.83 1019.07 1019.24 1019.51 1019.60 1019.53 1019.53 1019.38 1019.09 1018.84 1018.48 1018.26 1018.20 1018.46 1018.41 1018.54 1018.36 1018.17
1006.62 1006.14 1006.48 1006.30 1005.86 1004.50 1004.65 1005.40 1004.72 1005.59 1006.64 1007.95 1009.39 1010.63 1011.73 1012.88 1013.81 1014.71 1015.51 1016.04 1016.52 1017.00 1017.54 1018.00 1018.40 1018.75 1018.79 1018.96 1019.17 1019.27 1019.29 1019.25 1019.30 1019.18 1018.99 1018.70 1018.51 1018.14 1018.39 1018.87 1019.08 1018.79 1018.33 1018.30
1006.38 1006.71 1007.36 1007.04 1006.00 1005.79 1005.30 1005.83 1006.07 1007.12 1008.21 1009.34 1010.17 1011.25 1012.27 1013.21 1014.15 1014.88 1015.39 1015.91 1016.43 1017.08 1017.61 1018.00 1018.48 1018.82 1018.80 1018.99 1019.23 1019.32 1019.35 1019.27 1018.96 1018.76 1018.60 1018.47 1018.40 1018.34 1018.74 1018.94 1019.00 1018.84 1018.62 1018.32
1006.74 1006.47 1007.03 1008.14 1006.44 1005.36 1005.56 1006.33 1006.90 1007.99 1009.19 1010.09 1011.03 1011.95 1012.74 1013.50 1014.30 1015.00 1015.54 1016.08 1016.89 1017.46 1017.77 1018.19 1018.58 1018.83 1018.88 1019.11 1019.27 1019.30 1019.27 1018.98 1018.60 1018.62 1018.72 1018.50 1018.24 1018.53 1018.86 1018.99 1018.94 1018.94 1018.89 1018.81
1007.51 1006.81 1007.26 1006.34 1005.30 1006.03 1006.28 1006.77 1007.47 1008.21 1009.34 1010.35 1011.57 1012.44 1013.20 1013.94 1014.80 1015.52 1015.95 1016.34 1016.94 1017.51 1017.92 1018.39 1018.76 1018.86 1019.17 1019.34 1019.41 1019.50 1019.39 1018.98 1018.56 1018.56 1018.66 1018.38 1018.43 1018.67 1018.86 1018.87 1018.97 1019.09 1019.15 1018.90
1006.53 1005.70 1005.74 1005.28 1005.38 1006.14 1006.86 1007.52 1008.05 1008.84 1009.75 1010.64 1011.62 1012.46 1013.43 1014.39 1015.21 1015.76 1016.21 1016.75 1017.32 1018.00 1018.46 1018.73 1018.86 1019.19 1019.40 1019.40 1019.46 1019.44 1019.25 1018.95 1018.42 1018.39 1018.37 1018.33 1018.54 1018.79 1018.81 1018.76 1018.97 1019.18 1019.17 1018.71
1006.35 1005.93 1006.06 1006.29 1006.36 1006.83 1007.48 1007.96 1008.73 1009.36 1010.17 1010.93 1011.80 1012.73 1013.61 1014.54 1015.22 1015.84 1016.39 1017.09 1017.84 1018.53 1018.99 1018.87 1019.13 1019.36 1019.47 1019.43 1019.49 1019.40 1019.18 1018.82 1018.65 1018.56 1018.47 1018.59 1018.92 1018.75 1018.58 1018.69 1018.95 1019.17 1019.01 1018.56
1006.58 1006.45 1006.48 1006.58 1007.05 1007.26 1007.98 1008.39 1009.18 1009.91 1010.53 1011.19 1012.07 1013.06 1013.92 1014.74 1015.34 1016.16 1016.95 1017.78 1018.01 1018.53 1018.86 1019.13 1019.40 1019.54 1019.59 1019.68 1019.58 1019.35 1019.14 1018.89 1018.92 1018.80 1018.74 1018.70 1018.84 1018.52 1018.47 1018.72 1019.04 1019.13 1018.91 1018.54
1006.83 1006.73 1006.77 1006.99 1007.57 1008.09 1008.53 1008.97 1009.72 1010.51 1011.00 1011.29 1012.18 1013.12 1014.01 1014.75 1015.48 1016.53 1017.51 1018.33 1018.83 1018.77 1019.07 1019.47 1019.73 1019.93 1020.01 1019.93 1019.74 1019.43 1019.15 1019.12 1019.32 1019.17 1019.10 1018.90 1018.74 1018.62 1018.74 1018.99 1019.18 1019.14 1018.89 1018.53
1007.28 1007.13 1007.17 1007.39 1007.95 1008.58 1009.27 1009.66 1010.27 1010.76 1011.30 1011.94 1012.42 1013.23 1014.18 1015.02 1015.79 1016.68 1017.37 1018.29 1019.12 1019.08 1019.46 1019.87 1020.16 1020.21 1020.19 1020.14 1020.06 1019.63 1019.45 1019.52 1019.59 1019.59 1019.42 1019.16 1018.98 1019.02 1019.26 1019.38 1019.45 1019.20 1018.80 1018.53
1008.20 1007.93 1007.76 1008.08 1008.54 1008.93 1009.44 1009.99 1010.26 1010.86 1011.52 1012.31 1012.77 1013.59 1014.40 1015.30 1016.20 1017.24 1018.33 1018.90 1019.12 1019.52 1019.95 1020.36 1020.50 1020.44 1020.38 1020.36 1020.20 1019.95 1019.93 1020.02 1020.11 1020.00 1019.64 1019.46 1019.44 1019.65 1019.81 1019.86 1019.69 1019.39 1018.89 1018.63
1009.13 1009.01 1008.85 1008.81 1008.55 1009.01 1009.57 1009.84 1010.28 1010.85 1011.65 1012.62 1013.15 1013.84 1014.62 1015.77 1017.03 1017.64 1018.20 1018.91 1019.42 1019.84 1020.31 1020.64 1020.71 1020.69 1020.63 1020.48 1020.29 1020.25 1020.42 1020.54 1020.58 1020.34 1020.10 1019.89 1020.04 1020.16 1020.14 1020.05 1019.99 1019.68 1019.23 1018.86
1009.95 1009.92 1009.68 1009.52 1009.67 1009.83 1010.17 1010.26 1010.47 1011.56 1012.32 1013.12 1013.81 1014.52 1015.07 1015.43 1016.79 1018.41 1018.81 1019.50 1019.78 1020.20 1020.59 1020.76 1020.88 1020.90 1020.69 1020.53 1020.43 1020.67 1020.80 1021.01 1021.08 1020.86 1020.70 1020.61 1020.62 1020.69 1020.57 1020.31 1020.08 1019.88 1019.53 1019.23
1010.44 1010.47 1010.44 1010.33 1010.36 1010.74 1010.88 1010.93 1011.57 1012.58 1013.09 1014.25 1014.63 1015.62 1015.91 1016.79 1017.69 1018.37 1019.00 1019.64 1020.05 1020.41 1020.82 1021.00 1021.07 1020.99 1020.91 1020.84 1020.91 1021.09 1021.32 1021.50 1021.54 1021.43 1021.30 1021.22 1021.17 1021.12 1020.86 1020.59 1020.35 1020.13 1019.93 1019.63
1010.74 1010.78 1010.87 1011.12 1011.35 1011.71 1011.88 1011.89 1012.31 1013.10 1013.47 1014.18 1015.22 1016.03 1016.62 1017.38 1018.06 1018.53 1019.21 1019.92 1020.29 1020.67 1021.00 1021.22 1021.25 1021.26 1021.21 1021.21 1021.39 1021.57 1021.80 1022.01 1022.06 1022.05 1021.96 1021.89 1021.79 1021.60 1021.28 1021.09 1020.75 1020.47 1020.40 1020.10
Wind_Speed
12 13 13 8 9 11 9 8 8 10 9 9 10 16 18 22 18 19 19 14 12 10 9 9 8 8 8 7 6 1 3 2 1 4 4 4 4 5 6 4 4 4 5 1
8 13 18 15 15 11 9 7 6 9 6 7 6 17 17 20 19 18 18 19 15 13 13 11 10 9 8 7 4 3 2 3 5 4 3 4 4 5 5 5 4 4 6 4
7 7 8 14 17 16 9 9 7 9 6 9 7 7 13 15 18 16 14 17 14 14 12 9 8 11 8 6 4 2 3 5 5 3 2 1 3 5 4 3 3 6 7 6
6 4 13 6 9 10 12 15 7 16 11 8 9 7 9 5 18 13 16 14 13 11 10 10 9 9 8 6 3 3 5 6 2 3 3 4 4 2 3 3 4 6 7 8
6 8 7 12 11 6 3 5 18 21 22 17 13 15 11 14 15 14 12 9 11 13 13 10 10 8 7 4 3 4 5 4 4 4 3 3 4 5 4 4 5 6 6 8
2 9 16 1 3 7 3 4 11 23 21 20 11 8 3 11 18 16 15 15 14 13 12 11 7 8 6 4 4 1 5 3 3 4 2 4 4 3 4 4 6 5 8 7
5 7 5 2 2 5 8 9 6 9 16 13 9 10 12 15 14 15 15 16 14 12 11 8 7 6 3 3 4 1 2 3 4 3 3 4 3 3 4 7 5 6 4 5
4 3 7 1 4 6 7 11 19 16 15 8 18 19 17 16 15 15 16 14 12 11 8 7 6 4 4 4 2 0 1 4 3 4 4 4 4 5 7 5 3 3 5 3
10 11 9 11 5 7 7 19 19 24 22 13 19 18 16 14 14 12 11 11 11 10 8 5 4 6 4 4 3 2 4 4 4 4 4 5 5 7 5 4 2 3 4 3
8 8 12 10 7 9 6 13 21 22 20 20 20 17 15 15 12 9 9 11 10 9 8 5 3 3 4 5 3 3 4 5 5 4 5 7 5 5 4 3 3 3 3 3
5 13 10 6 5 9 16 19 20 20 22 20 19 16 16 13 10 10 9 7 9 8 7 7 6 5 4 5 3 3 4 5 4 4 6 6 6 2 1 1 3 3 1 1
2 7 5 6 4 6 17 13 16 20 19 18 19 17 15 11 11 9 9 7 7 8 8 7 6 6 5 5 4 1 2 3 4 4 5 4 4 5 5 6 5 7 3 3
3 8 6 8 5 6 7 7 15 18 18 19 16 16 13 13 8 11 9 9 8 7 7 7 7 6 6 5 2 2 1 3 4 4 5 5 5 5 4 3 4 3 7 9
6 14 9 13 6 16 19 9 13 16 15 16 16 14 13 12 13 11 9 8 7 7 8 8 6 6 5 4 2 2 3 6 3 4 4 5 5 4 5 4 2 3 6 6
8 13 9 12 4 9 17 14 16 15 15 14 14 14 14 12 11 9 7 8 8 8 7 7 7 5 5 3 4 4 5 4 4 4 5 5 3 5 5 4 3 3 3 4
6 12 22 23 16 9 13 14 16 16 13 13 14 13 10 9 9 8 8 8 8 6 7 7 7 5 5 5 5 5 5 9 8 4 4 3 4 5 4 3 3 4 4 4
5 21 20 14 13 9 12 13 13 14 15 15 14 11 9 10 9 8 8 7 8 7 7 7 6 5 7 6 5 4 4 6 7 3 2 3 3 4 3 2 3 4 3 3
13 8 13 11 13 13 12 11 10 12 13 15 14 13 11 10 8 8 8 8 8 9 8 7 6 6 5 3 4 4 4 5 3 3 2 4 4 4 2 2 4 4 3 4
5 8 10 8 7 10 10 10 9 11 12 13 12 11 11 10 8 8 8 8 8 8 4 7 6 3 1 1 3 4 5 5 5 4 3 6 4 2 2 2 4 3 3 4
4 5 8 10 9 9 9 7 8 10 9 10 10 9 10 10 10 9 9 7 6 6 7 7 3 2 4 6 8 5 5 4 5 4 4 5 2 1 3 5 5 3 3 4
4 4 1 7 8 8 8 9 11 10 7 8 12 10 11 9 10 12 9 7 4 7 7 8 6 4 4 5 6 5 5 5 5 5 4 5 5 3 5 5 4 3 4 5
6 4 3 6 7 6 7 8 10 9 8 8 10 12 12 10 9 7 8 9 4 5 5 5 4 4 4 6 5 4 5 6 5 5 4 5 5 5 5 5 4 4 5 6
7 7 6 4 8 7 7 7 10 13 10 7 11 11 9 7 10 10 8 4 5 7 6 5 3 5 6 5 5 4 6 6 6 5 5 5 5 6 5 5 4 5 7 7
6 7 7 7 4 6 5 3 10 13 12 9 9 8 11 9 8 5 7 9 9 8 6 3 3 6 6 4 3 6 6 6 5 5 5 7 5 5 5 5 4 6 7 7
4 3 5 5 6 5 7 5 10 12 13 11 11 8 8 8 10 5 8 7 9 7 5 3 5 6 5 3 5 6 5 5 5 5 5 5 5 5 5 4 5 6 6 7
3 2 3 4 4 5 3 4 6 8 12 10 10 7 10 9 10 9 6 8 6 7 4 2 3 4 3 5 6 6 5 6 6 5 6 5 5 5 4 5 5 6 7 7
4 3 4 5 6 6 5 5 9 9 10 12 11 10 10 9 8 8 7 6 5 5 4 3 4 5 4 5 6 6 5 5 6 5 5 5 5 5 5 5 6 6 7 8
Wind_Direction
220 210 248 260 274 214 211 203 177 229 228 162 165 131 126 123 129 148 165 176 157 152 140 130 133 120 107 103 100 133 281 118 212 247 228 237 253 249 247 259 258 281 301 278
221 218 228 253 270 264 221 260 207 198 204 169 105 120 140 152 159 165 181 156 154 147 139 144 141 131 120 124 127 159 274 247 260 229 226 251 263 269 251 271 271 280 289 257
238 222 217 247 233 252 219 213 218 213 164 130 136 134 149 160 169 166 156 149 149 152 148 146 134 122 125 132 133 199 242 272 264 224 260 339 328 329 354 317 300 288 283 281
216 176 229 239 199 248 259 203 154 95 93 86 98 90 67 72 152 141 133 143 140 133 113 106 109 101 106 110 129 215 257 270 25 40 30 13 3 22 334 308 283 278 285 282
179 207 244 239 256 227 104 250 153 142 148 137 116 81 40 71 96 112 121 119 114 114 114 109 107 114 111 129 212 263 280 55 31 5 350 346 325 304 294 293 295 290 288 286
189 204 229 120 122 262 95 68 6 137 138 139 132 105 139 96 99 97 99 107 111 109 104 102 106 109 129 198 238 77 42 8 330 311 350 325 324 287 265 282 282 309 306 341
225 232 249 108 272 276 117 198 38 150 150 154 137 141 137 109 95 99 105 108 104 101 107 114 115 125 192 93 82 30 338 329 311 340 325 310 260 282 281 289 329 311 0 82
127 64 269 186 54 143 206 134 105 85 97 99 113 113 108 108 108 109 112 108 104 102 103 114 127 137 118 95 231 73 316 291 303 304 295 309 287 295 302 301 246 307 34 63
181 200 273 280 236 167 171 129 125 127 123 132 120 114 116 116 110 113 114 111 110 113 118 131 140 141 129 194 92 359 339 13 1 338 329 315 314 296 302 293 253 18 62 33
139 178 162 229 303 136 167 135 131 131 135 133 127 125 122 112 119 122 118 120 126 124 122 125 141 162 213 130 89 19 22 334 310 336 322 310 310 288 302 320 65 73 42 11
104 145 139 182 185 121 109 124 128 130 133 130 124 124 122 126 129 125 128 123 128 133 141 163 184 216 126 114 77 56 358 340 352 340 325 310 308 303 62 260 150 123 90 350
313 4 286 148 191 152 136 141 139 134 133 132 125 124 131 135 128 132 123 123 116 141 153 178 169 143 125 105 79 9 348 336 335 325 317 312 310 321 30 148 109 92 111 207
288 296 36 54 74 66 101 110 118 123 125 124 125 131 128 130 130 122 121 120 142 169 156 133 125 128 127 132 161 66 41 316 314 316 308 312 311 298 317 18 355 338 270 277
350 44 17 18 336 89 84 40 81 95 105 116 122 121 124 122 121 124 136 158 160 131 119 126 127 114 112 92 29 337 305 318 257 289 298 303 315 325 70 77 88 335 290 263
126 121 100 7 36 195 133 121 106 102 107 109 113 117 122 126 128 143 144 130 120 115 117 121 115 113 91 60 40 350 320 278 275 293 302 305 293 50 71 59 49 348 355 2
174 157 142 171 204 93 99 102 109 114 107 109 110 117 121 116 117 114 116 115 113 124 125 109 112 122 92 67 26 339 330 293 266 279 312 313 20 80 61 51 31 20 14 5
156 201 211 144 119 107 111 119 125 123 123 121 123 125 115 112 112 114 121 119 112 111 109 109 103 83 79 62 33 334 325 314 287 317 319 13 50 93 84 43 55 46 9 12
279 155 139 121 107 107 104 102 107 118 129 132 133 130 124 125 134 129 117 109 102 84 91 94 88 62 82 47 4 324 307 296 337 348 55 349 39 94 67 58 78 62 341 348
351 39 76 79 115 116 125 120 112 117 128 133 130 132 133 131 126 120 116 118 124 118 139 108 103 71 62 275 358 328 328 334 358 11 23 13 85 96 41 71 91 71 331 326
352 30 78 78 66 84 92 98 116 120 127 126 120 124 120 125 118 112 89 77 109 124 127 128 139 236 39 18 7 322 318 18 360 1 15 10 63 58 29 96 85 53 349 338
320 333 110 122 114 91 102 108 120 132 134 122 130 127 127 122 122 118 107 105 101 118 117 103 80 62 55 4 350 328 20 33 14 8 23 355 343 1 53 64 61 23 350 348
329 278 221 129 118 119 125 131 126 122 108 117 119 119 124 121 120 92 126 134 150 119 109 90 81 57 34 6 348 329 30 45 27 1 4 358 350 43 55 58 50 1 360 344
7 15 57 85 148 177 161 156 151 141 138 144 135 129 123 121 119 114 116 131 104 91 90 87 56 45 20 358 338 357 59 48 22 350 355 10 21 47 40 31 29 351 2 343
28 10 13 10 82 143 118 139 161 166 149 146 111 110 111 100 62 75 87 102 113 102 102 98 54 36 7 328 332 74 61 38 9 349 1 25 42 54 32 22 18 359 347 344
49 351 310 55 56 71 82 68 96 115 111 111 107 79 115 107 118 120 103 109 111 104 103 71 35 7 337 28 59 74 69 45 17 3 25 28 36 42 21 6 7 351 345 356
57 46 83 59 73 67 83 95 96 118 115 107 100 120 96 100 111 114 111 112 111 105 106 79 30 17 46 55 65 70 72 45 25 14 27 22 34 35 3 9 7 360 357 359
85 70 81 55 59 53 46 73 111 117 119 117 115 114 114 112 111 110 107 113 118 116 111 89 55 38 29 71 67 64 64 58 37 30 34 21 19 11 360 18 12 5 2 0